AO-07 1 07530U 74089B 14219.47052856 -.00000049 00000-0 -36340-4 0 331 2 07530 101.4765 199.6223 0011773 192.7058 322.6939 12.53606559817949 FO-29 1 24278U 96046B 14219.09535262 -.00000037 00000-0 -29430-5 0 4357 2 24278 098.5130 225.9306 0351025 165.4025 239.7213 13.53027739887557 SO-33 1 25509U 98061B 14219.47207075 .00000310 00000-0 46897-4 0 8108 2 25509 031.4327 229.7926 0349666 203.7093 286.6836 14.29567091824498 RS-22 1 27939U 03042A 14219.72302479 .00000887 00000-0 17276-3 0 7403 2 27939 097.8131 031.3190 0012416 309.0049 051.0024 14.65271777580278 HO-68 1 36122U 09072B 14219.71841607 -.00000043 00000-0 00000 0 0 8348 2 36122 100.2424 270.0145 0007675 117.9020 242.2868 13.16317245223218 AO-73 1 39444U 13066AE 14219.12135030 .00002219 00000-0 30110-3 0 2144 2 39444 097.7695 288.0361 0063136 077.7631 283.0649 14.78467728 36990 EO-79 1 40025U 14033R 14219.75561637 .00001935 00000-0 23127-3 0 1379 2 40025 097.9760 114.4850 0014004 126.1095 234.1432 14.85311659 7242 UO-11 1 14781U 84021B 14219.15512684 .00000725 00000-0 98701-4 0 5668 2 14781 097.8481 278.2790 0008762 025.1082 335.0555 14.81674187635519 AO-16 1 20439U 90005D 14219.09611236 .00000122 00000-0 61087-4 0 843 2 20439 098.5084 155.4784 0010925 015.7725 050.9956 14.32373636281779 LO-19 1 20442U 90005G 14219.41118089 .00000101 00000-0 53198-4 0 235 2 20442 098.4793 156.2880 0011600 003.1787 356.9469 14.32574915282014 AO-27 1 22825U 93061C 14219.76838566 .00000057 00000-0 39628-4 0 7323 2 22825 098.6650 165.5823 0009308 141.7617 277.1821 14.29734550 88152 IO-26 1 22826U 93061D 14219.39159935 .00000095 00000-0 53854-4 0 4886 2 22826 098.6592 165.4187 0009929 136.1392 224.0581 14.30036123 88233 GO-32 1 25397U 98043D 14219.48429954 .00000027 00000-0 30286-4 0 4113 2 25397 098.4730 175.5704 0002162 132.5029 340.1508 14.23454030835161 NO-44 1 26931U 01043C 14219.16722915 .00000065 00000-0 57271-4 0 6667 2 26931 067.0506 266.9949 0007172 280.4534 079.5759 14.30135484670890 SO-50 1 27607U 02058C 14219.45081644 .00000559 00000-0 10433-3 0 4680 2 27607 064.5562 076.0674 0053932 356.3164 003.7532 14.73851126625036 CO-55 1 27844U 03031E 14219.02077553 .00000229 00000-0 12458-3 0 9871 2 27844 098.6985 227.0612 0010866 125.9633 291.8330 14.21535330575800 CO-57 1 27848U 03031J 14218.96673731 .00000181 00000-0 10316-3 0 9280 2 27848 098.7080 226.7466 0010718 132.2296 286.9960 14.21218750575714 AO-51 1 28375U 04025K 14219.08917916 .00000136 00000-0 53482-4 0 9046 2 28375 098.2534 164.2754 0082938 197.6605 162.1698 14.41408751531233 CP3 1 31129U 07012N 14219.48501944 .00000613 00000-0 14447-3 0 8147 2 31129 097.9384 194.8829 0097810 210.3736 266.6917 14.54774553387499 CO-65 1 32785U 08021C 14219.16016537 .00001324 00000-0 15946-3 0 216 2 32785 097.6952 268.7741 0013971 028.0420 037.4130 14.85429993339598 PRISM 1 33493U 09002B 14219.73588822 .00004189 00000-0 44276-3 0 1779 2 33493 098.2526 037.5943 0016224 277.2993 082.6428 14.89716165299852 SOHLA-1 1 33496U 09002E 14218.81224456 .00000417 00000-0 76416-4 0 4214 2 33496 098.1762 339.8827 0007620 086.5140 031.3385 14.70852212296955 TISAT-1 1 36799U 10035E 14219.80577812 .00002929 00000-0 34201-3 0 4392 2 36799 098.0176 312.1970 0014540 147.6828 212.5273 14.85868061220384 STUDSAT 1 36801U 10035G 14217.99388286 .00010579 00000-0 91073-3 0 8641 2 36801 098.0385 319.4152 0009910 125.2487 293.6917 14.97518656220582 ALMASAT-1 1 38078U 12006B 14219.50446954 .00021654 32176-5 45108-3 0 1040 2 38078 069.4694 295.2568 0586961 323.5051 120.8584 14.52355688129082 XATCOBEO 1 38082U 12006F 14219.64537272 .00444964 70982-4 11779-2 0 4738 2 38082 069.4287 168.1558 0133813 251.0128 165.7217 15.80903249132456 CUBEBUG-1 1 39153U 13018D 14219.74977649 .00001545 00000-0 22183-3 0 3655 2 39153 098.0407 299.9470 0017445 180.9384 179.1796 14.77825842 69176 ESTCUBE-1 1 39161U 13021C 14219.74853113 .00001115 00000-0 19384-3 0 3604 2 39161 098.0951 300.2635 0008689 225.9208 134.1285 14.70086352 67173 DUCHIFAT-1 1 40021U 14033M 14219.68453522 .00002746 00000-0 32420-3 0 1401 2 40021 097.9772 114.4351 0015936 128.2914 231.9753 14.85448757 7224 NANOSATCBR1 1 40024U 14033Q 14219.68762310 .00002370 00000-0 28152-3 0 1345 2 40024 097.9792 114.4225 0013832 124.6550 235.5994 14.85344173 7222 DTUSAT-2 1 40030U 14033W 14219.70031716 .00002007 00000-0 24170-3 0 1358 2 40030 097.9754 114.3946 0013949 117.4582 242.8057 14.84944900 7235 ANTELSAT 1 40034U 14033AA 14219.74571504 .00001829 00000-0 29542-3 0 1348 2 40034 097.9754 113.3946 0062863 043.4240 317.1934 14.71274204 7189 MET-2/21 1 22782U 93055A 14219.76750441 .00000080 00000-0 58290-4 0 1295 2 22782 082.5512 132.3868 0023574 119.1800 292.8228 13.83743107 57257 OKEAN-4 1 23317U 94066A 14219.47189049 .00001141 00000-0 12868-3 0 6093 2 23317 082.5389 019.8398 0019067 289.7782 123.5849 14.85617177 70722 NOAA-14 1 23455U 94089A 14219.45947684 .00000065 00000-0 57416-4 0 8507 2 23455 098.7770 301.9825 0008569 249.9947 240.5276 14.13980972 11191 NOAA-15 1 25338U 98030A 14219.50563920 .00000149 00000-0 81978-4 0 2879 2 25338 098.7554 213.2719 0010405 006.2399 102.4722 14.25452893844158 RESURS 1 25394U 98043A 14218.79996465 -.00000011 00000-0 13273-4 0 7214 2 25394 098.4175 181.0522 0002615 108.0237 310.5783 14.24396325835522 FENGYUN1 1 25730U 99025A 14219.00063110 .00000974 00000-0 55491-3 0 2103 2 25730 098.9152 179.7884 0023953 333.5521 081.2588 14.11991031784697 OKEAN-0 1 25860U 99039A 14219.46524694 .00000605 00000-0 96782-4 0 3236 2 25860 098.0476 183.0410 0001019 121.5470 029.8632 14.75336120809712 NOAA-16 1 26536U 00055A 14219.41800570 .00000108 00000-0 82126-4 0 7826 2 26536 098.9866 279.9943 0010969 045.0829 315.1231 14.13031043715342 NOAA-17 1 27453U 02032A 14219.45931210 .00000126 00000-0 71665-4 0 6782 2 27453 098.3164 216.4781 0011995 030.1515 330.0354 14.24762936629989 NOAA-18 1 28654U 05018A 14219.48299771 .00000058 00000-0 56950-4 0 1885 2 28654 099.1525 200.0236 0015401 119.0256 348.7821 14.12047940474804 NOAA-19 1 33591U 09005A 14219.45209841 .00000069 00000-0 62186-4 0 3317 2 33591 098.9473 164.3437 0013512 339.5491 126.6187 14.11746066283221 HUBBLE 1 20580U 90037B 14219.76945413 .00001992 00000-0 12302-3 0 713 2 20580 028.4705 058.0062 0003206 113.0720 344.9168 15.05600065132491 ISS 1 25544U 98067A 14219.91894913 .00008246 00000-0 14903-3 0 8541 2 25544 051.6455 203.1576 0006920 345.1293 055.7727 15.50613042899350 CO-58 1 28895U 05043F 14218.79025834 .00000759 00000-0 16015-3 0 8376 2 28895 097.8321 058.0258 0016976 206.5009 153.5327 14.61959041467646 FALCON 1 30776U 07006E 14219.27063979 .00006532 00000-0 32674-3 0 9278 2 30776 035.4288 157.3482 0001331 321.0113 165.3827 15.16840788408499 MAST 1 31126U 07012K 14219.78076514 .00000251 00000-0 64863-4 0 1124 2 31126 097.9188 197.9988 0092047 192.5211 288.1109 14.55336549387890 CAPE1 1 31130U 07012P 14219.39349074 .00000491 00000-0 11849-3 0 1187 2 31130 097.9397 194.3490 0098334 212.0616 147.4577 14.54521651387253 COMPASS 1 32787U 08021E 14219.13789843 .00002875 00000-0 31757-3 0 43 2 32787 097.6981 271.2058 0013834 019.9881 340.1875 14.88127570339768 AAUSAT2 1 32788U 08021F 14219.72230560 .00002202 00000-0 24027-3 0 9917 2 32788 097.6990 272.8241 0013142 015.8902 344.2725 14.88863463339915 DO-64 1 32789U 08021G 14219.12998334 .00005501 00000-0 52249-3 0 319 2 32789 097.7189 279.2465 0011494 003.8279 054.2093 14.93851810340106 CO-66 1 32791U 08021J 14219.14094264 .00002276 00000-0 26123-3 0 9860 2 32791 097.6977 269.8666 0014619 023.3521 336.8356 14.86745861339626 RS-30 1 32953U 08025A 14219.58113476 .00000010 00000-0 00000 0 0 1788 2 32953 082.5043 169.2561 0020366 045.8851 314.3902 12.43049480281642 METEOR-M 1 35865U 09049A 14219.73412181 -.00000005 00000-0 17089-4 0 7839 2 35865 098.5447 265.5735 0002181 327.9225 032.1821 14.21926752253669 RS-38 1 35869U 09049E 14219.78430420 .00000016 00000-0 26506-4 0 6995 2 35869 098.5387 265.3999 0003506 312.2644 175.1552 14.22220330253704 JUGNU 1 37839U 11058B 14219.47276378 .00000407 00000-0 75129-4 0 6688 2 37839 019.9612 304.1099 0018826 189.0812 266.9980 14.12324435145818 SRMSAT 1 37841U 11058D 14219.46586602 .00000374 00000-0 61078-4 0 6720 2 37841 019.9721 324.5036 0011827 126.1606 309.3951 14.10363427145605 RAX-2 1 37853U 11061D 14219.80288308 .00002381 00000-0 16978-3 0 8806 2 37853 101.7111 274.0819 0214859 267.3895 208.8956 14.89891680150345 AUBIESAT 1 37854U 11061E 14219.12740015 .00003187 00000-0 21691-3 0 8601 2 37854 101.7150 275.1237 0212640 266.2288 146.4359 14.91245198150305 HRBE 1 37855U 11061F 14219.14097227 .00002898 00000-0 20046-3 0 8706 2 37855 101.7146 274.4277 0215007 267.6325 149.0129 14.90529373150273 RS-39 1 38051U 11062C 14219.82727090 .00093257 00000-0 83625-3 0 7923 2 38051 051.6249 321.5625 0007398 359.1213 085.4911 15.67499975142198 E-STAR 1 38079U 12006C 14218.46642770 .00084941 50808-5 88438-3 0 9220 2 38079 069.4484 218.3648 0347099 281.9296 235.8594 15.15558175131065 GOLIAT 1 38085U 12006J 14219.75786375 .00072638 46165-5 80404-3 0 2522 2 38085 069.4526 223.2834 0372467 284.1691 071.8361 15.09225862131036 HORYU-2 1 38340U 12025D 14219.38941949 .00001988 00000-0 31988-3 0 9305 2 38340 098.2666 177.4682 0013357 018.1877 341.9808 14.72660949119331 RS-40 1 38735U 12041C 14219.73612567 .00000024 00000-0 10000-3 0 6423 2 38735 082.4750 255.3998 0017765 139.1217 221.1199 12.42561314 91986 PROITERES 1 38756U 12047B 14219.81558589 .00000463 00000-0 76710-4 0 875 2 38756 098.2284 308.9559 0012107 213.2259 146.8191 14.75031056102799 BEESAT-3 1 39134U 13015E 14219.53259899 .00006956 00000-0 48519-3 0 6664 2 39134 064.8634 335.9714 0031312 298.7821 061.0157 15.05737634 71393 BEESAT-2 1 39136U 13015G 14219.81770505 .00005999 00000-0 42763-3 0 6491 2 39136 064.8647 335.7084 0031502 299.0952 060.6957 15.05070851 71425 LO-75 1 39382U 13064C 14219.17848864 .00112430 00000-0 18314-2 0 3547 2 39382 040.4911 145.8548 0022720 251.3354 108.4819 15.51175354 39951 ZACUBE-1 1 39417U 13066B 14219.14403616 .00001752 00000-0 24041-3 0 3692 2 39417 097.7717 288.0095 0063608 077.9939 282.8383 14.78237062 38222 TRITON-1 1 39427U 13066M 14218.98746064 .00001673 00000-0 28604-3 0 2220 2 39427 097.7596 282.6454 0119267 088.6968 272.7927 14.65504645 37839 DELFIN3XT 1 39428U 13066N 14219.25579011 .00002918 00000-0 50664-3 0 2255 2 39428 097.7577 281.9763 0129819 090.5028 271.1101 14.63477098 37800 GOMX-1 1 39430U 13066Q 14219.74978454 .00001825 00000-0 35182-3 0 7097 2 39430 097.7512 279.9172 0157587 095.7367 266.1800 14.56939822 37720 MO-76 1 39436U 13066W 14218.98510115 .00014795 00000-0 14867-2 0 2905 2 39436 097.7752 291.8409 0027171 082.6447 277.7697 14.91072603 38443 LO-74 1 39440U 13066AA 14219.34742195 .00001850 00000-0 27826-3 0 2229 2 39440 097.7680 286.1393 0085341 080.4639 280.6284 14.73178345 38118 PUCPSAT-1 1 39442U 13066AC 14219.26963673 .00002833 00000-0 32436-3 0 2201 2 39442 097.7771 291.3365 0036002 077.8708 282.6603 14.86275780 37217 SHINAISAT 1 39572U 14009A 14219.24479619 .00064966 00000-0 45161-3 0 2195 2 39572 064.9978 225.1614 0019791 286.3095 073.5883 15.73759091 25134 OPUSAT 1 39575U 14009D 14205.03098383 .10394079 79053-5 15280-3 0 2959 2 39575 064.9843 263.3854 0017888 326.7083 036.3105 16.47207532 23119 TEIKYOSAT 1 39576U 14009E 14219.51591977 .00096239 00000-0 52393-3 0 2295 2 39576 065.0062 221.8073 0020603 296.3393 063.5613 15.79144330 25222 CO-77 1 39577U 14009F 14219.89924775 .00316867 47037-4 73152-3 0 2678 2 39577 065.0007 215.1920 0018544 291.3577 068.5565 15.96647621 25387 STARS-II 1 39579U 14009H 14116.06110564 .20186783 77451-5 52661-3 0 1329 2 39579 064.9886 219.0071 0013010 293.8065 069.6132 16.44611049 9028 SPROUT 1 39770U 14029E 14219.08777418 .00001070 00000-0 13909-3 0 917 2 39770 097.8728 315.4630 0011177 140.3356 219.8721 14.82683328 11085 POPSAT-HIP1 1 40028U 14033U 14219.82823794 .00001956 00000-0 23444-3 0 1448 2 40028 097.9803 114.5686 0016107 122.1456 238.1354 14.85152055 7244 EO-80 1 40032U 14033Y 14219.76840457 .00001984 00000-0 23919-3 0 1382 2 40032 097.9771 114.4673 0013393 117.7350 242.5257 14.84923626 7245 VELOX-1 1 40057U 14034E 14219.78146823 .00001993 00000-0 31067-3 0 1303 2 40057 098.2498 287.6105 0012519 152.1564 208.0308 14.74031169 5685 DAURIA DX 1 1 40071U 14037C 14219.75682357 .00001024 00000-0 14448-3 0 1013 2 40071 098.3997 272.7226 0009444 155.9040 204.2572 14.79530644 4438 UKUBE-1 1 40074U 14037F 14219.80689704 .00002059 00000-0 27697-3 0 1036 2 40074 098.4011 272.8208 0005757 157.0536 203.0903 14.80416407 4444 /EX